Regional Weather Roundup
Issued by NWS

Home | Current Version | Previous Version | Graphics & Text | Print | Product List | Glossary On
Versions: 1 2 3 4 5 6 7 8 9 10 11 12 13 14 15 16 17 18 19 20 21 22 23 24 25 26 27 28 29 30 31 32 33 34 35 36 37 38 39 40 41 42 43 44 45 46 47 48 49 50
403
ASUS45 KTFX 241210
RWRMT
MONTANA REGIONAL WEATHER ROUNDUP
NATIONAL WEATHER SERVICE GREAT FALLS MT
600 AM MDT MON JUL 24 2017

NOTE: "FAIR" INDICATES FEW OR NO CLOUDS BELOW 12000 FEET WITH NO
SIGNIFICANT WEATHER AND/OR OBSTRUCTIONS TO VISIBILITY.

MTZ001>007-043-241300-
WEST OF THE DIVIDE

CITY           SKY/WX    TMP DP  RH WIND       PRES   REMARKS
KALISPELL      CLEAR     54  50  86 N6        29.87R
MISSOULA       CLEAR     60  49  66 CALM      29.94S
BUTTE          CLEAR     52  42  69 S3        30.08R
MULLAN PASS    CLEAR     59  39  47 VRB3      30.07S
ANACONDA         N/A     59  41  51 SW8       30.04R
DEER LODGE       N/A     57  43  58 CALM      30.04R
EUREKA           N/A     61  37  41 MISG      29.91R
LIBBY            N/A     59  48  67 CALM      29.87R
PLAINS           N/A     55  47  74 CALM      29.90R
$$

MTZ008-052>055-241300-
SOUTHWEST MONTANA

CITY           SKY/WX    TMP DP  RH WIND       PRES   REMARKS
BOZEMAN        CLEAR     53  44  71 S7        29.99R
DILLON         CLOUDY    53  41  63 SW9       30.03R
W YELLOWSTONE  CLOUDY    39  34  81 CALM      30.15S
ENNIS          CLEAR     55  36  47 CALM      30.09R
THREE FORKS      N/A     49  43  80 CALM      29.98R
TWIN BRIDGES     N/A     53  38  56 CALM      30.01
$$

MTZ009-010-012-014-046-048-049-054-241300-
EAST SLOPES AND CENTRAL MONTANA

CITY           SKY/WX    TMP DP  RH WIND       PRES   REMARKS
CUT BANK       CLEAR     47  42  83 NW10      30.02R
GREAT FALLS    PTCLDY    51  43  74 NW9       30.04R
MALMSTROM AFB  PTCLDY    53  45  74 W10       30.02R
HELENA         CLEAR     67  43  41 E5        29.96R
CHOTEAU          N/A     50  45  81 MISG      30.04R
CONRAD           N/A     50  47  89 NW10      30.03R
$$

MTZ011-013-016-021-045-047-050-051-241300-
NORTH CENTRAL MONTANA

CITY           SKY/WX    TMP DP  RH WIND       PRES   REMARKS
HAVRE          CLEAR     56  47  71 W5        29.93R
LEWISTOWN      CLEAR     57  39  51 NW6       29.93R
N BAR RANCH      N/A     70  37  30 CALM      29.92R
CHINOOK          N/A     59  52  77 W7        29.89R
$$

MTZ017>020-022>027-061-062-241300-
NORTHEAST MONTANA

CITY           SKY/WX    TMP DP  RH WIND       PRES   REMARKS
GLASGOW        CLOUDY    72  46  39 SW6       29.71R
JORDAN           N/A     72  40  31 SW7       29.74R
SIDNEY         CLEAR     64  55  72 S7        29.77S
WOLF POINT     CLEAR     76  47  35 SW5       29.70S
MALTA          CLEAR     66  54  63 NW9G23    29.81R
PLENTYWOOD       N/A     70  54  56 SE13      29.73F
POPLAR           N/A     75  50  41 S8        29.71S
$$

MTZ028>42-056>058-241300-
SOUTHCENTRAL AND SOUTHEAST MONTANA

CITY           SKY/WX    TMP DP  RH WIND       PRES   REMARKS
BAKER          PTCLDY    71  45  39 SE9       29.83S
BILLINGS       PTCLDY    66  42  41 SW12      29.86R
LIVINGSTON     CLEAR     54  39  57 NW6       29.99R
MILES CITY     CLEAR     68  44  42 S9        29.79S
BIG TIMBER     CLEAR     66  37  34 W10       29.98R
EKALAKA          N/A     71  47  42 SE12      29.86S
FORSYTH          N/A     75  46  35 CALM      29.77F
LAUREL           N/A     62  40  44 W5        29.88R
$$

REGIONAL REPORTS...DAKOTAS

CITY           SKY/WX    TMP DP  RH WIND       PRES   REMARKS
WILLISTON      CLOUDY    73  54  51 S8        29.76F
MINOT          CLEAR     70  57  63 S13G21    29.82F
DICKINSON      CLOUDY    67  55  65 SE15G24   29.84F
BEACH            N/A     64  52  63 S7        29.85F
CROSBY           N/A     70  54  56 S17G24    29.74F
TIOGA            N/A     70  54  56 S18G28    29.80F
WATFORD CITY     N/A     70  54  56 S5G13     29.79S
BISMARCK       CLOUDY    65  61  87 SE8       29.93S
GRAND FORKS    PTCLDY    62  61  96 S6        29.97R
FARGO          CLEAR     64  60  87 MISG        N/A
BUFFALO SD       N/A     70  56  61 SE15      29.76F
RAPID CITY     MOCLDY    65  53  65 SW3       29.90F
$$

REGIONAL REPORTS...WYOMING/IDAHO/WASHINGTON

CITY           SKY/WX    TMP DP  RH WIND       PRES   REMARKS
GILLETTE       CLEAR     61  55  81 SE5       29.93S
SHERIDAN       CLEAR     58  46  64 NW6       29.90R
BUFFALO WY     CLEAR     64  45  49 S9        29.99S
CODY           CLEAR     71  37  28 SW8       30.00S
YELLOWSTONE LA   N/A     40  39  97 CALM      30.27R
IDAHO FALLS    CLOUDY    59  46  62 SW3       30.03R
BOISE          CLOUDY    74  40  29 CALM      29.87S
SPOKANE        CLEAR     61  36  39 N7        29.93R
$$

REGIONAL REPORTS...ALBERTA

CITY           SKY/WX    TMP DP  RH WIND       PRES   REMARKS
EDMONTON       MOCLDY    48  48 100 W7        29.84S
CALGARY        PTCLDY    45  36  70 N7        29.96S
LETHBRIDGE     PTCLDY    43  41  93 SW8       30.00F
MEDICINE HAT   CLEAR     52  46  82 W14       29.92R
WATERTON GATE    N/A     48  43  81 NW2         N/A
CARDSTON         N/A     45  39  81 SW5         N/A
ONEFOUR          N/A     52  45  76 NW20G26     N/A
$$

REGIONAL REPORTS...SASKATCHEWAN

CITY           SKY/WX    TMP DP  RH WIND       PRES   REMARKS
SWIFT CURRENT  CLOUDY    55  52  88 NW23G33   29.77R
REGINA         PTCLDY    64  54  68 SE12G17   29.67R
SASKATOON      PTCLDY    63  59  88 W10       29.58R
CYPRESS HILLS    N/A     46  43  87 NW9G17      N/A
VAL MARIE        N/A     59  52  77 N14G23      N/A
ROCKGLEN         N/A     64  46  52 SW12        N/A
ASSINIBOIA       N/A     50  48  93 W13G18      N/A
$$




USA.gov is the U.S. government's official web portal to all federal, state and local government web resources and services.